Precipitable_Water
1.38 1.36 1.33 1.30 1.31 1.32 1.32 1.30 1.30 1.27 1.25 1.24 1.20 1.19 1.18 1.20 1.19 1.13 1.04 0.97 0.91 0.82 0.77 0.71 0.66 0.62 0.60 0.60 0.62 0.60 0.58 0.56 0.54 0.53 0.50 0.48 0.47 0.46 0.44 0.44 0.44 0.44
1.37 1.36 1.35 1.33 1.32 1.33 1.34 1.33 1.30 1.27 1.24 1.23 1.22 1.21 1.21 1.18 1.13 1.04 0.95 0.92 0.87 0.81 0.74 0.66 0.62 0.60 0.61 0.63 0.62 0.57 0.53 0.51 0.49 0.49 0.46 0.46 0.46 0.47 0.45 0.44 0.44 0.44
1.39 1.37 1.34 1.30 1.29 1.30 1.32 1.33 1.32 1.29 1.25 1.24 1.23 1.20 1.18 1.13 1.07 1.00 0.95 0.90 0.83 0.77 0.69 0.64 0.64 0.66 0.65 0.62 0.59 0.54 0.52 0.51 0.51 0.52 0.49 0.47 0.46 0.44 0.45 0.45 0.45 0.44
1.40 1.37 1.32 1.30 1.30 1.29 1.33 1.32 1.30 1.28 1.26 1.22 1.20 1.18 1.15 1.11 1.06 0.98 0.93 0.87 0.82 0.74 0.71 0.71 0.69 0.66 0.64 0.62 0.59 0.56 0.54 0.52 0.50 0.49 0.48 0.49 0.48 0.47 0.46 0.47 0.45 0.44
1.37 1.34 1.33 1.31 1.31 1.32 1.33 1.31 1.28 1.26 1.22 1.20 1.20 1.19 1.14 1.09 1.03 0.97 0.91 0.88 0.84 0.78 0.75 0.71 0.69 0.66 0.63 0.61 0.58 0.55 0.52 0.49 0.50 0.50 0.48 0.46 0.46 0.45 0.46 0.46 0.44 0.41
1.38 1.35 1.35 1.32 1.31 1.32 1.31 1.28 1.28 1.23 1.19 1.16 1.18 1.20 1.13 1.08 1.03 0.98 0.93 0.89 0.85 0.80 0.75 0.70 0.66 0.63 0.62 0.59 0.56 0.53 0.51 0.51 0.51 0.51 0.48 0.47 0.48 0.48 0.46 0.46 0.46 0.44
1.35 1.36 1.33 1.34 1.32 1.33 1.31 1.28 1.26 1.21 1.18 1.17 1.18 1.16 1.13 1.06 1.02 0.97 0.93 0.90 0.84 0.79 0.73 0.68 0.64 0.64 0.62 0.59 0.56 0.54 0.55 0.53 0.53 0.52 0.50 0.49 0.48 0.49 0.50 0.47 0.43 0.41
1.37 1.37 1.35 1.35 1.34 1.31 1.29 1.26 1.22 1.20 1.19 1.19 1.16 1.16 1.13 1.07 1.02 0.96 0.91 0.88 0.82 0.77 0.73 0.68 0.67 0.63 0.61 0.59 0.58 0.57 0.54 0.56 0.55 0.54 0.50 0.47 0.49 0.48 0.48 0.46 0.45 0.41
1.39 1.36 1.35 1.33 1.32 1.30 1.26 1.23 1.21 1.20 1.21 1.19 1.17 1.18 1.14 1.07 1.01 0.94 0.88 0.85 0.81 0.78 0.72 0.69 0.66 0.62 0.62 0.61 0.60 0.57 0.55 0.56 0.57 0.55 0.52 0.51 0.49 0.46 0.46 0.45 0.43 0.43
1.36 1.36 1.32 1.29 1.27 1.27 1.23 1.22 1.21 1.21 1.22 1.21 1.18 1.18 1.11 1.06 1.00 0.91 0.86 0.83 0.80 0.78 0.72 0.69 0.67 0.64 0.63 0.63 0.60 0.58 0.57 0.57 0.57 0.55 0.52 0.50 0.48 0.46 0.45 0.46 0.45 0.43
1.33 1.34 1.30 1.26 1.25 1.24 1.22 1.22 1.21 1.21 1.22 1.19 1.18 1.15 1.09 1.03 0.98 0.90 0.83 0.82 0.80 0.76 0.73 0.71 0.68 0.65 0.63 0.62 0.61 0.60 0.60 0.59 0.57 0.55 0.54 0.51 0.50 0.49 0.49 0.46 0.45 0.43
1.32 1.32 1.30 1.25 1.24 1.23 1.22 1.22 1.22 1.20 1.20 1.17 1.17 1.13 1.08 1.02 0.93 0.86 0.82 0.80 0.79 0.77 0.75 0.74 0.70 0.68 0.66 0.64 0.63 0.63 0.62 0.60 0.59 0.58 0.57 0.55 0.53 0.51 0.49 0.47 0.43 0.43
1.30 1.31 1.30 1.26 1.24 1.23 1.23 1.22 1.20 1.19 1.17 1.14 1.14 1.12 1.08 0.99 0.89 0.83 0.81 0.80 0.79 0.79 0.76 0.76 0.73 0.70 0.69 0.68 0.67 0.67 0.64 0.62 0.61 0.60 0.59 0.56 0.53 0.51 0.49 0.46 0.45 0.44
1.32 1.33 1.32 1.28 1.25 1.25 1.23 1.21 1.19 1.17 1.15 1.14 1.12 1.09 1.06 0.97 0.86 0.82 0.81 0.79 0.78 0.78 0.78 0.79 0.76 0.75 0.74 0.72 0.71 0.69 0.66 0.66 0.65 0.62 0.58 0.54 0.52 0.50 0.47 0.46 0.45 0.44
1.32 1.33 1.32 1.28 1.24 1.23 1.21 1.19 1.16 1.15 1.13 1.10 1.08 1.07 1.05 0.96 0.89 0.85 0.79 0.77 0.79 0.80 0.80 0.80 0.78 0.79 0.76 0.72 0.70 0.72 0.73 0.71 0.68 0.61 0.55 0.51 0.49 0.48 0.46 0.45 0.45 0.44
1.32 1.33 1.30 1.25 1.21 1.19 1.19 1.17 1.14 1.12 1.08 1.06 1.06 1.06 1.04 0.99 0.92 0.88 0.84 0.81 0.81 0.83 0.83 0.86 0.82 0.81 0.77 0.71 0.70 0.66 0.65 0.63 0.57 0.54 0.51 0.49 0.46 0.45 0.43 0.44 0.43 0.41
1.31 1.31 1.28 1.21 1.20 1.19 1.18 1.16 1.13 1.09 1.06 1.05 1.06 1.06 1.04 1.02 0.96 0.92 0.88 0.87 0.85 0.84 0.85 0.86 0.85 0.78 0.72 0.67 0.66 0.64 0.63 0.57 0.52 0.52 0.50 0.48 0.46 0.44 0.42 0.41 0.47 0.41
1.31 1.30 1.25 1.21 1.20 1.18 1.17 1.16 1.14 1.09 1.05 1.04 1.04 1.04 1.06 1.04 0.99 0.94 0.89 0.89 0.86 0.89 0.92 0.88 0.80 0.73 0.67 0.64 0.67 0.68 0.61 0.55 0.53 0.52 0.49 0.48 0.47 0.46 0.44 0.45 0.46 0.44
1.30 1.29 1.24 1.20 1.19 1.19 1.18 1.16 1.13 1.08 1.03 1.02 1.02 1.05 1.04 1.01 0.98 0.91 0.89 0.89 0.86 0.90 0.94 0.87 0.77 0.69 0.65 0.64 0.67 0.63 0.58 0.56 0.54 0.52 0.50 0.49 0.47 0.47 0.48 0.50 0.48 0.46
1.29 1.27 1.21 1.19 1.20 1.19 1.17 1.14 1.11 1.07 1.05 1.06 1.06 1.04 0.99 0.96 0.94 0.88 0.88 0.89 0.87 0.90 0.90 0.81 0.76 0.69 0.67 0.66 0.63 0.58 0.58 0.57 0.57 0.55 0.49 0.51 0.48 0.48 0.53 0.53 0.51 0.48
1.28 1.24 1.19 1.18 1.18 1.17 1.15 1.13 1.08 1.05 1.04 1.04 1.05 1.01 0.97 0.94 0.92 0.85 0.83 0.83 0.84 0.89 0.86 0.78 0.78 0.70 0.68 0.66 0.60 0.57 0.57 0.56 0.55 0.55 0.48 0.50 0.51 0.53 0.53 0.51 0.50 0.50
1.24 1.20 1.16 1.15 1.15 1.14 1.12 1.10 1.07 1.05 1.04 1.05 1.06 1.04 1.01 0.97 0.94 0.88 0.83 0.82 0.86 0.87 0.82 0.75 0.75 0.71 0.68 0.64 0.58 0.56 0.57 0.53 0.54 0.52 0.48 0.51 0.53 0.52 0.51 0.50 0.50 0.50
1.24 1.19 1.15 1.13 1.14 1.14 1.13 1.11 1.08 1.06 1.06 1.08 1.04 1.02 0.99 0.95 0.90 0.88 0.86 0.83 0.84 0.80 0.75 0.75 0.74 0.72 0.68 0.60 0.54 0.53 0.52 0.50 0.52 0.53 0.53 0.53 0.53 0.51 0.49 0.47 0.51 0.49
1.23 1.21 1.17 1.15 1.14 1.14 1.13 1.11 1.10 1.09 1.07 1.08 1.04 0.99 0.96 0.92 0.88 0.84 0.83 0.81 0.77 0.75 0.75 0.74 0.74 0.73 0.68 0.59 0.51 0.48 0.48 0.50 0.51 0.52 0.52 0.51 0.49 0.47 0.45 0.48 0.52 0.48
1.22 1.20 1.18 1.14 1.14 1.13 1.12 1.09 1.08 1.07 1.08 1.05 1.00 0.95 0.89 0.84 0.81 0.78 0.77 0.75 0.75 0.73 0.79 0.81 0.82 0.77 0.68 0.61 0.50 0.45 0.47 0.52 0.51 0.50 0.47 0.43 0.42 0.45 0.46 0.50 0.49 0.45
1.19 1.14 1.14 1.13 1.12 1.11 1.10 1.08 1.07 1.05 1.03 0.99 0.96 0.92 0.87 0.82 0.79 0.74 0.72 0.75 0.79 0.77 0.84 0.92 0.87 0.76 0.68 0.62 0.50 0.46 0.48 0.53 0.50 0.46 0.40 0.41 0.44 0.47 0.44 0.47 0.46 0.42
Wind_Speed
18 17 17 17 17 16 15 15 14 14 14 14 13 13 13 13 12 12 12 12 12 12 12 12 12 12 11 11 11 11 11 11 11 12 12 12 12 13 14 15 15 16
18 17 17 17 16 16 15 15 14 14 14 13 13 12 12 12 12 12 12 12 12 12 12 12 12 12 12 11 11 11 11 11 11 12 12 12 13 14 15 15 16 17
18 18 17 17 16 16 15 14 14 14 13 13 12 12 12 12 12 12 12 12 11 11 11 12 12 11 11 11 11 11 11 11 12 12 12 13 14 14 15 16 16 17
18 18 17 17 16 15 15 14 14 14 13 13 13 13 12 13 13 12 12 11 11 11 11 11 12 12 11 11 11 11 11 12 12 13 13 14 14 15 16 16 17 17
19 19 18 17 16 15 15 14 14 14 14 14 13 13 13 13 13 12 12 12 11 11 12 12 12 12 12 12 11 12 12 12 13 13 14 14 15 15 16 17 17 18
19 19 18 17 16 15 15 14 14 14 15 15 14 13 13 13 13 12 12 12 12 12 12 12 12 12 12 12 12 12 12 13 13 14 14 14 15 16 16 17 17 18
20 19 18 17 17 16 15 15 14 14 15 15 14 14 14 14 13 13 13 13 12 12 13 13 12 12 12 12 12 13 13 14 14 14 14 15 16 16 17 17 18 18
20 19 19 18 17 16 16 15 15 15 15 15 15 14 14 14 13 13 13 13 13 13 13 13 13 13 13 13 13 13 14 14 15 15 15 16 16 17 17 18 17 17
20 20 19 18 18 17 16 16 15 15 15 15 15 15 14 14 14 14 14 14 14 14 14 14 13 13 13 14 14 14 15 15 15 16 16 17 17 17 17 17 17 17
20 20 19 19 18 18 17 16 15 15 15 15 15 15 14 14 15 15 15 14 14 15 14 14 14 14 14 15 15 15 15 16 16 16 16 17 17 16 17 17 17 17
21 20 20 19 19 18 17 16 16 16 16 16 16 15 15 15 15 15 15 15 15 15 15 15 15 15 16 16 16 16 16 16 16 16 16 16 16 16 17 18 18 18
21 21 21 20 19 18 17 17 16 16 16 16 16 16 15 16 16 16 16 16 16 16 16 16 16 16 17 17 17 16 16 16 16 16 16 17 17 18 18 19 18 18
22 22 21 20 19 18 18 17 17 16 17 16 16 16 16 16 16 16 16 16 16 16 16 17 17 17 18 18 17 17 16 17 17 17 17 18 18 18 19 19 18 18
22 22 21 20 19 19 18 17 17 17 17 17 16 16 16 16 16 16 17 17 16 17 17 17 18 18 18 18 17 17 17 17 17 17 17 17 18 18 18 18 18 18
23 22 21 20 19 19 18 18 17 17 17 16 16 16 17 17 17 17 17 17 16 17 17 18 18 18 17 17 17 17 17 17 16 16 17 17 17 18 18 18 18 18
22 22 21 20 20 19 19 18 18 17 16 16 16 17 17 17 17 17 17 17 17 18 18 18 18 17 17 16 16 16 16 16 16 16 16 17 17 18 18 18 18 18
22 22 22 21 20 19 19 19 18 17 16 16 17 17 17 17 18 18 18 18 19 19 18 18 17 18 17 16 16 16 16 16 16 16 17 17 18 18 18 18 18 18
22 23 22 21 20 20 20 19 18 17 17 17 17 18 18 18 19 19 19 19 19 19 18 17 17 18 17 16 16 16 17 17 16 17 17 17 18 18 18 18 18 18
23 23 22 21 20 20 20 19 19 18 17 18 18 19 19 19 19 19 19 19 19 19 18 18 18 18 18 17 16 16 17 17 17 17 17 17 17 17 17 18 18 18
23 23 22 21 21 20 20 20 20 19 19 19 20 20 20 20 20 20 19 19 19 19 19 19 19 19 18 17 17 17 17 16 17 17 17 17 17 17 17 17 17 18
23 23 22 22 21 21 21 21 21 20 20 20 20 20 20 20 21 20 20 20 20 20 20 19 19 19 18 18 17 17 17 17 17 17 17 17 17 17 17 17 17 18
23 23 23 22 22 22 22 22 21 21 21 21 21 20 20 20 21 21 21 21 21 21 20 20 20 19 19 18 18 18 18 17 17 17 17 17 17 17 17 18 18 19
24 23 23 23 22 22 22 22 22 22 22 22 21 20 20 20 20 21 21 21 21 21 20 19 20 20 19 18 18 18 18 17 17 17 16 16 17 18 18 18 18 19
23 23 23 23 23 23 23 22 22 22 23 22 22 21 20 21 20 20 21 21 21 21 20 19 19 20 19 19 18 18 18 18 17 17 17 17 18 18 18 18 18 18
22 22 22 23 23 23 23 22 22 23 23 22 22 21 21 22 21 21 21 22 21 21 20 19 19 20 20 19 19 18 18 18 17 17 17 18 18 18 18 18 19 18
22 22 22 23 23 22 22 22 22 22 22 22 22 21 21 22 22 21 21 21 21 21 20 19 19 19 20 20 19 19 18 18 17 17 18 18 18 18 18 18 19 19
Wind_Direction
237 239 242 245 248 249 247 245 245 245 247 248 249 252 253 253 253 252 255 257 256 256 256 257 260 263 266 268 270 273 277 281 284 287 289 292 295 297 298 300 302 304
236 239 241 244 247 247 244 243 244 244 245 246 249 252 252 252 251 251 253 255 255 254 255 257 260 262 265 268 271 273 276 280 284 288 290 293 295 296 298 301 303 304
236 238 240 242 244 242 240 242 243 242 244 245 247 250 249 249 250 251 251 252 253 253 254 256 259 262 265 268 270 273 276 280 285 288 291 292 294 295 298 300 302 302
235 237 239 240 240 239 238 239 239 240 241 241 244 248 248 248 250 250 249 249 250 252 254 257 260 262 264 266 270 273 277 282 285 288 290 292 293 295 298 299 301 302
234 235 238 239 238 236 236 237 237 238 239 240 244 248 248 248 249 247 246 247 249 253 256 258 260 262 264 267 271 275 279 283 285 288 289 291 293 296 298 299 300 302
234 234 235 236 235 234 234 235 236 239 241 242 246 249 248 246 246 245 244 246 249 253 256 259 260 262 265 269 273 277 280 282 284 286 288 291 294 296 297 299 300 302
232 232 233 233 233 233 233 235 238 240 243 245 248 250 249 245 243 243 243 245 250 254 256 259 261 264 268 271 275 278 280 282 283 285 288 290 293 296 297 299 301 303
231 231 232 232 233 234 234 237 240 242 244 246 247 250 248 243 241 241 243 246 251 254 257 260 263 266 269 272 275 278 279 281 283 285 287 290 292 295 298 300 302 302
229 230 231 232 234 235 236 238 241 242 245 246 247 249 247 242 240 241 243 247 252 255 258 262 265 267 270 273 275 277 279 282 284 286 288 290 292 295 298 300 302 303
229 229 231 233 235 236 236 238 240 241 245 246 246 248 246 241 241 242 244 248 253 256 260 263 266 268 270 272 275 277 279 282 285 287 289 290 292 294 297 300 302 303
229 230 231 233 235 235 235 237 239 242 245 245 245 247 245 242 243 244 246 249 254 258 261 265 267 268 270 272 274 276 279 282 285 287 289 290 292 293 297 300 302 303
230 230 231 234 235 234 234 236 239 242 244 244 245 246 245 244 245 246 248 251 255 260 264 267 269 269 270 271 273 276 279 282 284 285 287 289 291 293 296 300 302 302
230 230 232 234 234 233 234 236 239 242 242 243 245 245 246 246 246 248 251 254 258 262 266 269 270 271 271 272 274 276 278 282 283 283 285 288 290 292 296 299 300 301
229 230 231 232 232 232 234 236 238 240 241 243 244 245 247 248 248 249 253 256 260 265 268 270 271 273 273 273 275 276 279 283 283 282 284 287 289 292 295 297 299 300
229 230 231 230 231 232 234 236 237 239 241 243 244 245 248 249 250 252 254 257 261 264 267 270 272 273 273 273 275 279 282 285 284 283 284 287 290 292 295 297 298 300
228 228 228 229 230 232 234 235 237 238 241 242 243 246 249 251 251 253 255 257 261 265 268 270 271 271 273 274 276 280 283 285 285 286 287 289 291 293 295 296 297 299
227 226 227 228 230 231 233 235 237 239 241 242 244 248 250 251 252 254 257 259 262 268 270 269 269 270 272 276 278 280 283 285 286 287 289 290 292 294 295 296 297 298
226 226 226 227 229 231 233 235 237 239 242 244 247 250 252 253 254 257 260 260 264 270 271 269 270 271 271 275 278 280 283 285 286 287 289 291 292 294 296 296 296 297
225 225 226 227 229 231 233 235 238 240 243 246 250 252 254 255 256 259 261 261 265 272 273 272 272 271 270 273 275 278 282 285 287 288 290 292 293 295 297 296 294 296
225 226 226 227 229 231 234 237 239 242 246 249 252 254 255 256 258 259 261 262 266 272 274 273 272 269 268 270 272 276 281 285 290 291 290 292 294 295 295 294 294 296
226 226 226 227 229 232 235 238 241 244 248 251 253 255 255 257 258 258 260 262 266 270 272 272 270 267 266 269 271 274 278 283 289 291 290 290 293 293 292 292 293 296
225 226 227 228 230 234 237 240 242 245 249 252 253 255 256 257 258 259 260 263 266 268 270 271 269 265 265 268 269 271 275 280 285 289 289 290 290 290 290 291 293 295
226 227 229 230 233 236 239 241 244 246 250 252 253 255 258 258 258 259 262 265 266 267 269 272 269 265 265 267 268 269 272 276 282 287 289 288 289 290 291 292 293 294
226 228 230 232 235 239 240 241 244 247 250 251 253 255 258 260 260 261 264 267 266 266 269 270 267 265 265 267 267 268 270 273 279 284 287 288 289 291 292 292 293 294
227 230 232 235 237 239 240 242 245 248 249 251 253 255 258 261 262 263 265 267 266 267 269 268 264 264 266 267 267 268 268 271 276 282 287 290 290 291 292 293 293 293
228 231 234 236 238 239 240 243 247 249 250 252 255 258 260 262 263 264 265 266 267 268 267 264 261 264 267 267 267 268 266 268 274 281 288 291 291 291 293 293 292 292